EW2112 Weather Reports


Display with metric or nautical units.
time (UTC)temp
F
wind
direction
speed
MPH
gust
MPH
rain 1hr
in
rain 24hr
in
rain mn
in
humidity
%
barometer
mb
20260502123025 65 69 0.0 0.0 0.00 0.01 0.01 83 1019.4
20260502121536 66 69 0.0 0.0 0.00 0.01 0.01 82 1019.5
20260502114524 66 69 0.0 2.0 0.00 0.01 0.01 81 1019.8
20260502113024 66 69 0.0 3.0 0.00 0.01 0.01 80 1019.6
20260502111525 66 69 0.0 4.0 0.00 0.01 0.01 80 1019.5
20260502110029 66 67 0.0 2.0 0.00 0.01 0.01 80 1019.6
20260502104523 67 67 1.0 3.0 0.00 0.01 0.01 79 1019.4
20260502103023 67 67 0.0 2.0 0.00 0.01 0.01 78 1019.7
20260502101523 68 67 0.0 4.0 0.00 0.01 0.01 77 1019.4
20260502091519 69 31 1.0 6.0 0.00 0.01 0.01 75 1018.7
20260502071516 71 30 1.0 6.0 0.00 0.01 0.01 76 1018.2
20260502070021 72 88 2.0 9.0 0.00 0.01 0.01 74 1018.2
20260502064516 73 72 2.0 8.0 0.00 0.01 0.01 72 1018.3
20260502063024 73 70 2.0 10.0 0.00 0.01 0.01 71 1018.2
20260502061512 73 42 2.0 9.0 0.00 0.01 0.01 70 1018.3
20260502060018 73 88 1.0 9.0 0.00 0.01 0.01 70 1018.3
20260502054522 74 84 2.0 8.0 0.00 0.01 0.01 68 1018.4
20260502053009 74 94 3.0 7.0 0.00 0.01 0.01 67 1018.3
20260502051508 74 52 5.0 10.0 0.00 0.01 0.01 66 1018.4
20260502050010 75 32 2.0 9.0 0.00 0.01 0.01 65 1018.5
20260502044509 75 29 4.0 10.0 0.00 0.01 0.01 64 1018.4
20260502043008 76 59 2.0 10.0 0.00 0.01 0.01 64 1018.4
20260502041507 77 55 3.0 10.0 0.00 0.01 0.01 63 1018.5
20260502040003 76 34 4.0 11.0 0.00 0.01 0.01 64 1018.6
20260502034502 76 15 3.0 12.0 0.00 0.01 0.01 65 1018.7
20260502033100 76 34 5.0 10.0 0.00 0.01 0.01 64 1018.7
20260502031557 75 44 2.0 6.0 0.00 0.01 0.01 67 1018.9
20260502030058 75 5 6.0 14.0 0.00 0.01 0.01 68 1019.2
20260502024553 75 58 6.0 10.0 0.00 0.01 0.01 67 1019.5
20260502023053 74 33 7.0 11.0 0.00 0.01 0.01 68 1019.8
20260502021548 75 56 4.0 11.0 0.00 0.01 0.01 67 1020.0
20260502020046 75 30 5.0 13.0 0.00 0.01 0.01 69 1020.3
20260502014547 75 47 3.0 11.0 0.00 0.01 0.01 69 1020.5
20260502013046 74 5 4.0 14.0 0.00 0.01 0.01 68 1020.9
20260502011537 74 297 3.0 9.0 0.00 0.01 0.01 69 1021.0
20260502010036 73 298 1.0 9.0 0.00 0.01 0.01 70 1021.1
20260502004550 73 5 2.0 8.0 0.00 0.01 0.01 70 1021.2
20260502003030 73 341 0.0 5.0 0.00 0.01 0.01 72 1021.4
20260502001528 72 347 3.0 6.0 0.00 0.01 0.01 71 1021.7
20260502000036 71 296 1.0 7.0 0.00 0.01 0.01 74 1021.8
20260501234529 71 290 1.0 5.0 0.00 0.01 0.01 73 1022.0
20260501233019 69 257 1.0 4.0 0.00 0.01 0.01 75 1022.1
20260501231516 68 219 1.0 3.0 0.00 0.01 0.01 81 1022.2
20260501230010 66 219 0.0 2.0 0.00 0.01 0.01 81 1022.2
20260501224506 65 219 0.0 2.0 0.00 0.01 0.01 84 1022.1
20260501223007 64 221 0.0 3.0 0.00 0.01 0.01 86 1022.1
20260501221559 63 227 0.0 2.0 0.00 0.01 0.01 88 1022.2
20260501220104 62 227 0.0 1.0 0.00 0.01 0.01 90 1022.0
20260501214655 61 227 0.0 0.0 0.00 0.01 0.01 92 1021.9
20260501213109 61 227 0.0 2.0 0.00 0.01 0.01 92 1021.8
20260501211553 60 227 0.0 1.0 0.00 0.01 0.01 93 1022.0
20260501210051 60 227 0.0 0.0 0.00 0.01 0.01 92 1021.9
20260501204551 60 227 0.0 1.0 0.00 0.01 0.01 92 1021.9
20260501203047 61 229 0.0 0.0 0.00 0.01 0.01 92 1021.7
20260501201547 61 229 0.0 0.0 0.00 0.01 0.01 92 1021.7
20260501200046 61 229 0.0 0.0 0.00 0.01 0.01 92 1021.7
20260501194553 61 229 0.0 0.0 0.00 0.01 0.01 92 1021.5
20260501193046 61 229 0.0 0.0 0.00 0.01 0.01 91 1021.6
20260501191544 61 229 0.0 1.0 0.01 0.01 0.01 91 1021.3
20260501190043 61 229 0.0 1.0 0.01 0.01 0.01 92 1021.3
20260501184543 61 229 0.0 2.0 0.01 0.01 0.01 91 1021.2
20260501183045 62 229 1.0 4.0 0.01 0.01 0.01 91 1021.2
20260501181541 62 38 0.0 0.0 0.00 0.00 0.00 91 1021.5
20260501180041 62 38 0.0 0.0 0.00 0.00 0.00 91 1021.4
20260501174559 61 38 0.0 0.0 0.00 0.00 0.00 90 1021.3
20260501173053 61 38 0.0 2.0 0.00 0.00 0.00 90 1021.4
20260501171538 60 38 0.0 0.0 0.00 0.00 0.00 91 1021.4
20260501170036 60 38 0.0 1.0 0.00 0.00 0.00 91 1021.6
20260501164546 60 38 0.0 0.0 0.00 0.00 0.00 91 1021.6
20260501163033 59 38 0.0 0.0 0.00 0.00 0.00 91 1021.7
20260501161532 59 38 0.0 0.0 0.00 0.00 0.00 89 1021.9
20260501160032 60 38 0.0 0.0 0.00 0.00 0.00 89 1022.0
20260501154553 60 38 0.0 0.0 0.00 0.00 0.00 89 1022.1
20260501153042 60 38 0.0 0.0 0.00 0.00 0.00 89 1022.3
20260501151525 61 38 0.0 0.0 0.00 0.00 0.00 88 1022.4
20260501150022 61 38 0.0 0.0 0.00 0.00 0.00 88 1022.5